Starlink 6048

operational
NORAD ID: 56459 Int'l Des: 2023-064 Owner: SPXS Country: US Constellation: starlink
LEOCIRCULAR

关于 Starlink 6048

正在加载描述...

实时位置

正在加载3D地球...

即将过境

高度历史

Altitude vs Time

uPlot chart will show altitude changes over time

两行轨道根数

1 56459U 23064M 26035.47236462 -.00101847 00000-0 -86607-2 0 9996
2 56459 70.0093 228.0814 0002478 189.9867 170.1244 14.98294689150267
Epoch: Feb 4, 2026 • Age: 15 hours

当前状态

高度 579.1 km
速度 7.57 km/s
星下点 40.07°N, 79.79°E
发射日期 May 10, 2023
运行时间 2.7 years
类型 internet

技术详情

分类 Payload
质量 305.00 kg
干质量 290.00 kg
总质量 305.00 kg
长度 0.20 m
直径 2.80 m
跨度 9.00 m
形状 Box + pan
制造商 SPXS
平台类型 Starlink
阶段状态 In Orbit
所有者/国家 SPXS/US

大型星座

Loading constellations...